datetime,flow
1951-12-01,0.5
1951-12-02,0.6000000000000001
1951-12-03,0.4
1951-12-04,0.5
1951-12-05,0.4
1951-12-06,0.2
1951-12-07,0.30000000000000004
1951-12-08,0.4
1951-12-09,0.6000000000000001
1951-12-10,0.8
1951-12-11,0.7000000000000001
1951-12-12,0.9
1951-12-13,1.0
1951-12-14,2.2
1951-12-15,4.0
1951-12-16,5.0
1951-12-17,7.9
1951-12-18,9.0
1951-12-19,14.0
1951-12-20,15.0
1951-12-21,10.0
1951-12-22,7.0
1951-12-23,7.0
1951-12-24,14.0
1951-12-25,40.0
1951-12-26,24.0
1951-12-27,20.0
1951-12-28,21.0
1951-12-29,21.0
1951-12-30,17.0
1951-12-31,13.0
1952-01-01,12.0
1952-01-02,10.0
1952-01-03,30.0
1952-01-04,42.0
1952-01-05,32.0
1952-01-06,23.0
1952-01-07,11.0
1952-01-08,17.0
1952-01-09,9.7
1952-01-10,5.5
1952-01-11,7.9
1952-01-12,7.0
1952-01-13,5.5
1952-01-14,3.7
1952-01-15,3.0
1952-01-16,2.8
1952-01-17,6.8
1952-01-18,24.0
1952-01-19,11.0
1952-01-20,7.0
1952-01-21,4.8
1952-01-22,80.0
1952-01-23,78.0
1952-01-24,59.0
1952-01-25,32.0
1952-01-26,21.0
1952-01-27,19.0
1952-01-28,20.0
1952-01-29,21.0
1952-01-30,22.0
1952-01-31,22.0
1952-02-01,22.0
1952-02-02,21.0
1952-02-03,20.0
1952-02-04,20.0
1952-02-05,19.0
1952-02-06,20.0
1952-02-07,21.0
1952-02-08,21.0
1952-02-09,22.0
1952-02-10,21.0
1952-02-11,25.0
1952-02-12,24.0
1952-02-13,28.0
1952-02-14,43.0
1952-02-15,50.0
1952-02-16,54.0
1952-02-17,53.0
1952-02-18,49.0
1952-02-19,46.0
1952-02-20,45.0
1952-02-21,41.0
1952-02-22,38.0
1952-02-23,39.0
1952-02-24,37.0
1952-02-25,37.0
1952-02-26,37.0
1952-02-27,37.0
1952-02-28,36.0
1952-02-29,36.0
1952-03-01,38.0
1952-03-02,41.0
1952-03-03,45.0
1952-03-04,57.0
1952-03-05,78.0
1952-03-06,58.0
1952-03-07,58.0
1952-03-08,57.0
1952-03-09,58.0
1952-03-10,59.0
1952-03-11,59.0
1952-03-12,59.0
1952-03-13,62.0
1952-03-14,65.0
1952-03-15,68.0
1952-03-16,64.0
1952-03-17,62.0
1952-03-18,62.0
1952-03-19,65.0
1952-03-20,86.0
1952-03-21,80.0
1952-03-22,79.0
1952-03-23,83.0
1952-03-24,99.0
1952-03-25,85.0
1952-03-26,71.0
1952-03-27,36.0
1952-03-28,30.0
1952-03-29,35.0
1952-03-30,46.0
1952-03-31,56.0
1952-04-01,62.0
1952-04-02,65.0
1952-04-03,60.0
1952-04-04,64.0
1952-04-05,80.0
1952-04-06,88.0
1952-04-07,100.0
1952-04-08,118.0
1952-04-09,120.0
1952-04-10,128.0
1952-04-11,176.0
1952-04-12,205.0
1952-04-13,183.0
1952-04-14,168.0
1952-04-15,165.0
1952-04-16,155.0
1952-04-17,190.0
1952-04-18,183.0
1952-04-19,176.0
1952-04-20,207.0
1952-04-21,233.0
1952-04-22,308.0
1952-04-23,390.0
1952-04-24,376.0
1952-04-25,290.0
1952-04-26,240.0
1952-04-27,245.0
1952-04-28,278.0
1952-04-29,320.0
1952-04-30,348.0
1952-05-01,488.0
1952-05-02,551.0
1952-05-03,551.0
1952-05-04,446.0
1952-05-05,506.0
1952-05-06,759.0
1952-05-07,737.0
1952-05-08,1190.0
1952-05-09,2010.0
1952-05-10,2880.0
1952-05-11,2840.0
1952-05-12,2800.0
1952-05-13,2540.0
1952-05-14,2070.0
1952-05-15,1640.0
1952-05-16,1490.0
1952-05-17,1490.0
1952-05-18,1880.0
1952-05-19,2780.0
1952-05-20,3180.0
1952-05-21,2560.0
1952-05-22,2420.0
1952-05-23,1990.0
1952-05-24,1840.0
1952-05-25,1690.0
1952-05-26,1570.0
1952-05-27,1620.0
1952-05-28,1280.0
1952-05-29,1250.0
1952-05-30,1410.0
1952-05-31,1570.0
1952-06-01,1730.0
1952-06-02,1970.0
1952-06-03,3160.0
1952-06-04,3940.0
1952-06-05,3760.0
1952-06-06,3570.0
1952-06-07,3530.0
1952-06-08,3420.0
1952-06-09,3350.0
1952-06-10,3270.0
1952-06-11,3180.0
1952-06-12,2940.0
1952-06-13,2940.0
1952-06-14,2840.0
1952-06-15,2500.0
1952-06-16,2320.0
1952-06-17,2240.0
1952-06-18,1950.0
1952-06-19,1950.0
1952-06-20,1710.0
1952-06-21,1450.0
1952-06-22,1310.0
1952-06-23,1150.0
1952-06-24,968.0
1952-06-25,715.0
1952-06-26,570.0
1952-06-27,479.0
1952-06-28,376.0
1952-06-29,341.0
1952-06-30,314.0
1952-07-01,390.0
1952-07-02,272.0
1952-07-03,245.0
1952-07-04,250.0
1952-07-05,327.0
1952-07-06,398.0
1952-07-07,302.0
1952-07-08,584.0
1952-07-09,842.0
1952-07-10,715.0
1952-07-11,462.0
1952-07-12,462.0
1952-07-13,398.0
1952-07-14,362.0
1952-07-15,548.0
1952-07-16,362.0
1952-07-17,348.0
1952-07-18,290.0
1952-07-19,235.0
1952-07-20,206.0
1952-07-21,185.0
1952-07-22,210.0
1952-07-23,132.0
1952-07-24,117.0
1952-07-25,105.0
1952-07-26,108.0
1952-07-27,136.0
1952-07-28,143.0
1952-07-29,185.0
1952-07-30,139.0
1952-07-31,172.0
1952-08-01,181.0
1952-08-02,139.0
1952-08-03,161.0
1952-08-04,154.0
1952-08-05,189.0
1952-08-06,181.0
1952-08-07,172.0
1952-08-08,168.0
1952-08-09,150.0
1952-08-10,161.0
1952-08-11,172.0
1952-08-12,230.0
1952-08-13,382.0
1952-08-14,193.0
1952-08-15,176.0
1952-08-16,146.0
1952-08-17,146.0
1952-08-18,164.0
1952-08-19,172.0
1952-08-20,129.0
1952-08-21,120.0
1952-08-22,120.0
1952-08-23,181.0
1952-08-24,488.0
1952-08-25,278.0
1952-08-26,161.0
1952-08-27,157.0
1952-08-28,132.0
1952-08-29,114.0
1952-08-30,114.0
1952-08-31,111.0
1952-09-01,102.0
1952-09-02,87.0
1952-09-03,84.0
1952-09-04,80.0
1952-09-05,77.0
1952-09-06,75.0
1952-09-07,71.0
1952-09-08,65.0
1952-09-09,61.0
1952-09-10,59.0
1952-09-11,57.0
1952-09-12,50.0
1952-09-13,29.0
1952-09-14,28.0
1952-09-15,30.0
1952-09-16,30.0
1952-09-17,30.0
1952-09-18,30.0
1952-09-19,29.0
1952-09-20,29.0
1952-09-21,28.0
1952-09-22,32.0
1952-09-23,37.0
1952-09-24,51.0
1952-09-25,45.0
1952-09-26,46.0
1952-09-27,37.0
1952-09-28,34.0
1952-09-29,36.0
1952-09-30,36.0
1952-10-01,32.0
1952-10-02,29.0
1952-10-03,25.0
1952-10-04,22.0
1952-10-05,25.0
1952-10-06,28.0
1952-10-07,28.0
1952-10-08,26.0
1952-10-09,25.0
1952-10-10,24.0
1952-10-11,23.0
1952-10-12,23.0
1952-10-13,24.0
1952-10-14,24.0
1952-10-15,22.0
1952-10-16,23.0
1952-10-17,24.0
1952-10-18,24.0
1952-10-19,25.0
1952-10-20,25.0
1952-10-21,25.0
1952-10-22,26.0
1952-10-23,26.0
1952-10-24,26.0
1952-10-25,26.0
1952-10-26,25.0
1952-10-27,24.0
1952-10-28,24.0
1952-10-29,25.0
1952-10-30,26.0
1952-10-31,28.0
1952-11-01,28.0
1952-11-02,26.0
1952-11-03,24.0
1952-11-04,20.0
1952-11-05,19.0
1952-11-06,19.0
1952-11-07,8.0
1952-11-08,6.0
1952-11-09,6.0
1952-11-10,8.0
1952-11-11,11.0
1952-11-12,13.0
1952-11-13,14.0
1952-11-14,15.0
1952-11-15,17.0
1952-11-16,17.0
1952-11-17,18.0
1952-11-18,8.0
1952-11-19,6.0
1952-11-20,10.0
1952-11-21,14.0
1952-11-22,15.0
1952-11-23,21.0
1952-11-24,24.0
1952-11-25,21.0
1952-11-26,10.0
1952-11-27,8.0
1952-11-28,10.0
1952-11-29,12.0
1952-11-30,15.0
1952-12-01,87.0
1952-12-02,51.0
1952-12-03,50.0
1952-12-04,50.0
1952-12-05,55.0
1952-12-06,56.0
1952-12-07,57.0
1952-12-08,57.0
1952-12-09,55.0
1952-12-10,53.0
1952-12-11,63.0
1952-12-12,65.0
1952-12-13,59.0
1952-12-14,53.0
1952-12-15,51.0
1952-12-16,48.0
1952-12-17,50.0
1952-12-18,57.0
1952-12-19,51.0
1952-12-20,50.0
1952-12-21,53.0
1952-12-22,50.0
1952-12-23,50.0
1952-12-24,63.0
1952-12-25,65.0
1952-12-26,59.0
1952-12-27,57.0
1952-12-28,61.0
1952-12-29,61.0
1952-12-30,69.0
1952-12-31,71.0
1953-01-01,67.0
1953-01-02,73.0
1953-01-03,69.0
1953-01-04,67.0
1953-01-05,73.0
1953-01-06,105.0
1953-01-07,114.0
1953-01-08,114.0
1953-01-09,100.0
1953-01-10,94.0
1953-01-11,92.0
1953-01-12,87.0
1953-01-13,82.0
1953-01-14,32.0
1953-01-15,37.0
1953-01-16,46.0
1953-01-17,55.0
1953-01-18,59.0
1953-01-19,59.0
1953-01-20,53.0
1953-01-21,73.0
1953-01-22,75.0
1953-01-23,77.0
1953-01-24,80.0
1953-01-25,80.0
1953-01-26,80.0
1953-01-27,77.0
1953-01-28,77.0
1953-01-29,77.0
1953-01-30,77.0
1953-01-31,80.0
1953-02-01,80.0
1953-02-02,52.0
1953-02-03,59.0
1953-02-04,73.0
1953-02-05,82.0
1953-02-06,87.0
1953-02-07,87.0
1953-02-08,82.0
1953-02-09,45.0
1953-02-10,0.5
1953-02-11,0.8
1953-02-12,0.5
1953-02-13,0.30000000000000004
1953-02-14,0.30000000000000004
1953-02-15,0.2
1953-02-16,0.30000000000000004
1953-02-17,0.30000000000000004
1953-02-18,0.1
1953-02-19,0.1
1953-02-20,0.2
1953-02-21,0.30000000000000004
1953-02-22,0.2
1953-02-23,0.2
1953-02-24,0.30000000000000004
1953-02-25,0.30000000000000004
1953-02-26,0.2
1953-02-27,0.30000000000000004
1953-02-28,0.2
1953-03-01,0.2
1953-03-02,0.2
1953-03-03,0.30000000000000004
1953-03-04,0.2
1953-03-05,150.0
1953-03-06,139.0
1953-03-07,136.0
1953-03-08,132.0
1953-03-09,139.0
1953-03-10,132.0
1953-03-11,123.0
1953-03-12,114.0
1953-03-13,114.0
1953-03-14,108.0
1953-03-15,111.0
1953-03-16,108.0
1953-03-17,114.0
1953-03-18,123.0
1953-03-19,129.0
1953-03-20,129.0
1953-03-21,129.0
1953-03-22,123.0
1953-03-23,120.0
1953-03-24,117.0
1953-03-25,117.0
1953-03-26,114.0
1953-03-27,111.0
1953-03-28,111.0
1953-03-29,105.0
1953-03-30,97.0
1953-03-31,92.0
1953-04-01,87.0
1953-04-02,80.0
1953-04-03,73.0
1953-04-04,65.0
1953-04-05,59.0
1953-04-06,59.0
1953-04-07,61.0
1953-04-08,61.0
1953-04-09,61.0
1953-04-10,61.0
1953-04-11,63.0
1953-04-12,71.0
1953-04-13,80.0
1953-04-14,97.0
1953-04-15,97.0
1953-04-16,92.0
1953-04-17,87.0
1953-04-18,77.0
1953-04-19,67.0
1953-04-20,61.0
1953-04-21,59.0
1953-04-22,59.0
1953-04-23,75.0
1953-04-24,82.0
1953-04-25,87.0
1953-04-26,94.0
1953-04-27,100.0
1953-04-28,102.0
1953-04-29,132.0
1953-04-30,143.0
1953-05-01,146.0
1953-05-02,129.0
1953-05-03,105.0
1953-05-04,100.0
1953-05-05,126.0
1953-05-06,129.0
1953-05-07,114.0
1953-05-08,105.0
1953-05-09,105.0
1953-05-10,100.0
1953-05-11,34.0
1953-05-12,0.2
1953-05-13,0.30000000000000004
1953-05-14,0.2
1953-05-15,0.2
1953-05-16,0.2
1953-05-17,0.2
1953-05-18,0.30000000000000004
1953-05-19,0.30000000000000004
1953-05-20,0.30000000000000004
1953-05-21,0.30000000000000004
1953-05-22,0.1
1953-05-23,0.5
1953-05-24,0.9
1953-05-25,1.0
1953-05-26,1.0
1953-05-27,1.0
1953-05-28,1.0
1953-05-29,1.0
1953-05-30,1.0
1953-05-31,1.0
1953-06-01,1.0
1953-06-02,1.0
1953-06-03,1.0
1953-06-04,0.5
1953-06-05,0.4
1953-06-06,0.4
1953-06-07,0.4
1953-06-08,0.30000000000000004
1953-06-09,0.30000000000000004
1953-06-10,0.2
1953-06-11,0.2
1953-06-12,0.2
1953-06-13,0.2
1953-06-14,0.2
1953-06-15,0.2
1953-06-16,0.30000000000000004
1953-06-17,0.4
1953-06-18,0.4
1953-06-19,0.2
1953-06-20,0.2
1953-06-21,0.2
1953-06-22,0.2
1953-06-23,0.2
1953-06-24,0.2
1953-06-25,0.2
1953-06-26,0.2
1953-06-27,0.2
1953-06-28,0.2
1953-06-29,0.2
1953-06-30,0.2
1953-07-01,0.2
1953-07-02,0.2
1953-07-03,0.2
1953-07-04,0.2
1953-07-05,0.2
1953-07-06,0.2
1953-07-07,0.2
1953-07-08,0.2
1953-07-09,0.2
1953-07-10,0.2
1953-07-11,0.1
1953-07-12,0.1
1953-07-13,0.1
1953-07-14,0.1
1953-07-15,0.1
1953-07-16,0.1
1953-07-17,0.1
1953-07-18,0.1
1953-07-19,0.1
1953-07-20,0.1
1953-07-21,0.1
1953-07-22,0.1
1953-07-23,0.1
1953-07-24,0.1
1953-07-25,0.1
1953-07-26,0.1
1953-07-27,0.1
1953-07-28,0.2
1953-07-29,0.2
1953-07-30,0.2
1953-07-31,55.0
1953-08-01,137.0
1953-08-02,149.0
1953-08-03,147.0
1953-08-04,124.0
1953-08-05,113.0
1953-08-06,108.0
1953-08-07,102.0
1953-08-08,86.0
1953-08-09,62.0
1953-08-10,55.0
1953-08-11,58.0
1953-08-12,49.0
1953-08-13,36.0
1953-08-14,40.0
1953-08-15,48.0
1953-08-16,61.0
1953-08-17,65.0
1953-08-18,36.0
1953-08-19,30.0
1953-08-20,34.0
1953-08-21,38.0
1953-08-22,41.0
1953-08-23,46.0
1953-08-24,75.0
1953-08-25,106.0
1953-08-26,84.0
1953-08-27,59.0
1953-08-28,46.0
1953-08-29,40.0
1953-08-30,37.0
1953-08-31,35.0
1953-09-01,33.0
1953-09-02,28.0
1953-09-03,27.0
1953-09-04,27.0
1953-09-05,29.0
1953-09-06,28.0
1953-09-07,26.0
1953-09-08,25.0
1953-09-09,24.0
1953-09-10,22.0
1953-09-11,24.0
1953-09-12,23.0
1953-09-13,23.0
1953-09-14,23.0
1953-09-15,21.0
1953-09-16,23.0
1953-09-17,22.0
1953-09-18,20.0
1953-09-19,19.0
1953-09-20,19.0
1953-09-21,18.0
1953-09-22,19.0
1953-09-23,19.0
1953-09-24,18.0
1953-09-25,16.0
1953-09-26,16.0
1953-09-27,15.0
1953-09-28,15.0
1953-09-29,14.0
1953-09-30,11.0
1953-10-01,9.0
1953-10-02,9.0
1953-10-03,9.0
1953-10-04,6.0
1953-10-05,8.0
1953-10-06,10.0
1953-10-07,7.0
1953-10-08,6.0
1953-10-09,6.0
1953-10-10,6.0
1953-10-11,5.0
1953-10-12,6.0
1953-10-13,6.0
1953-10-14,6.0
1953-10-15,7.0
1953-10-16,9.0
1953-10-17,8.0
1953-10-18,8.0
1953-10-19,8.0
1953-10-20,9.0
1953-10-21,9.0
1953-10-22,9.0
1953-10-23,8.0
1953-10-24,8.0
1953-10-25,8.0
1953-10-26,8.0
1953-10-27,8.0
1953-10-28,8.0
1953-10-29,8.0
1953-10-30,8.0
1953-10-31,8.0
1953-11-01,7.0
1953-11-02,7.0
1953-11-03,7.0
1953-11-04,7.0
1953-11-05,7.0
1953-11-06,7.0
1953-11-07,6.0
1953-11-08,6.0
1953-11-09,6.0
1953-11-10,6.0
1953-11-11,13.0
1953-11-12,11.0
1953-11-13,21.0
1953-11-14,17.0
1953-11-15,10.0
1953-11-16,9.0
1953-11-17,9.0
1953-11-18,10.0
1953-11-19,11.0
1953-11-20,10.0
1953-11-21,8.0
1953-11-22,11.0
1953-11-23,30.0
1953-11-24,58.0
1953-11-25,65.0
1953-11-26,71.0
1953-11-27,81.0
1953-11-28,117.0
1953-11-29,90.0
1953-11-30,104.0
1953-12-01,122.0
1953-12-02,151.0
1953-12-03,187.0
1953-12-04,228.0
1953-12-05,40.0
1953-12-06,18.0
1953-12-07,19.0
1953-12-08,28.0
1953-12-09,22.0
1953-12-10,22.0
1953-12-11,22.0
1953-12-12,23.0
1953-12-13,22.0
1953-12-14,22.0
1953-12-15,22.0
1953-12-16,23.0
1953-12-17,56.0
1953-12-18,46.0
1953-12-19,33.0
1953-12-20,27.0
1953-12-21,26.0
1953-12-22,25.0
1953-12-23,23.0
1953-12-24,24.0
1953-12-25,26.0
1953-12-26,27.0
1953-12-27,30.0
1953-12-28,30.0
1953-12-29,30.0
1953-12-30,31.0
1953-12-31,30.0
1954-01-01,30.0
1954-01-02,10.0
1954-01-03,7.0
1954-01-04,12.0
1954-01-05,22.0
1954-01-06,24.0
1954-01-07,24.0
1954-01-08,36.0
1954-01-09,26.0
1954-01-10,48.0
1954-01-11,39.0
1954-01-12,34.0
1954-01-13,32.0
1954-01-14,53.0
1954-01-15,51.0
1954-01-16,48.0
1954-01-17,40.0
1954-01-18,36.0
1954-01-19,36.0
1954-01-20,37.0
1954-01-21,38.0
1954-01-22,37.0
1954-01-23,36.0
1954-01-24,37.0
1954-01-25,38.0
1954-01-26,38.0
1954-01-27,39.0
1954-01-28,38.0
1954-01-29,39.0
1954-01-30,38.0
1954-01-31,37.0
1954-02-01,38.0
1954-02-02,38.0
1954-02-03,39.0
1954-02-04,40.0
1954-02-05,44.0
1954-02-06,44.0
1954-02-07,43.0
1954-02-08,42.0
1954-02-09,46.0
1954-02-10,49.0
1954-02-11,47.0
1954-02-12,44.0
1954-02-13,60.0
1954-02-14,74.0
1954-02-15,80.0
1954-02-16,108.0
1954-02-17,96.0
1954-02-18,90.0
1954-02-19,92.0
1954-02-20,104.0
1954-02-21,96.0
1954-02-22,84.0
1954-02-23,77.0
1954-02-24,78.0
1954-02-25,86.0
1954-02-26,83.0
1954-02-27,71.0
1954-02-28,64.0
1954-03-01,59.0
1954-03-02,64.0
1954-03-03,63.0
1954-03-04,68.0
1954-03-05,75.0
1954-03-06,76.0
1954-03-07,81.0
1954-03-08,80.0
1954-03-09,80.0
1954-03-10,75.0
1954-03-11,65.0
1954-03-12,116.0
1954-03-13,131.0
1954-03-14,126.0
1954-03-15,143.0
1954-03-16,270.0
1954-03-17,392.0
1954-03-18,355.0
1954-03-19,284.0
1954-03-20,242.0
1954-03-21,207.0
1954-03-22,160.0
1954-03-23,126.0
1954-03-24,110.0
1954-03-25,96.0
1954-03-26,94.0
1954-03-27,91.0
1954-03-28,92.0
1954-03-29,106.0
1954-03-30,170.0
1954-03-31,250.0
1954-04-01,276.0
1954-04-02,234.0
1954-04-03,165.0
1954-04-04,130.0
1954-04-05,120.0
1954-04-06,134.0
1954-04-07,147.0
1954-04-08,121.0
1954-04-09,92.0
1954-04-10,81.0
1954-04-11,76.0
1954-04-12,56.0
1954-04-13,49.0
1954-04-14,111.0
1954-04-15,409.0
1954-04-16,570.0
1954-04-17,600.0
1954-04-18,660.0
1954-04-19,680.0
1954-04-20,480.0
1954-04-21,364.0
1954-04-22,302.0
1954-04-23,250.0
1954-04-24,192.0
1954-04-25,153.0
1954-04-26,129.0
1954-04-27,124.0
1954-04-28,132.0
1954-04-29,140.0
1954-04-30,125.0
1954-05-01,113.0
1954-05-02,112.0
1954-05-03,106.0
1954-05-04,103.0
1954-05-05,192.0
1954-05-06,360.0
1954-05-07,456.0
1954-05-08,350.0
1954-05-09,244.0
1954-05-10,185.0
1954-05-11,174.0
1954-05-12,177.0
1954-05-13,244.0
1954-05-14,310.0
1954-05-15,445.0
1954-05-16,512.0
1954-05-17,534.0
1954-05-18,546.0
1954-05-19,731.0
1954-05-20,1040.0
1954-05-21,935.0
1954-05-22,910.0
1954-05-23,1160.0
1954-05-24,1110.0
1954-05-25,1080.0
1954-05-26,1210.0
1954-05-27,1210.0
1954-05-28,733.0
1954-05-29,489.0
1954-05-30,423.0
1954-05-31,310.0
1954-06-01,198.0
1954-06-02,161.0
1954-06-03,134.0
1954-06-04,112.0
1954-06-05,96.0
1954-06-06,83.0
1954-06-07,77.0
1954-06-08,69.0
1954-06-09,59.0
1954-06-10,53.0
1954-06-11,47.0
1954-06-12,44.0
1954-06-13,41.0
1954-06-14,28.0
1954-06-15,1.2
1954-06-16,1.1
1954-06-17,1.2
1954-06-18,1.2
1954-06-19,1.2
1954-06-20,1.2
1954-06-21,1.2
1954-06-22,1.1
1954-06-23,1.0
1954-06-24,1.1
1954-06-25,1.6
1954-06-26,1.4
1954-06-27,1.5
1954-06-28,1.5
1954-06-29,1.5
1954-06-30,1.5
1954-07-01,1.5
1954-07-02,1.5
1954-07-03,1.6
1954-07-04,1.6
1954-07-05,1.6
1954-07-06,1.7000000000000002
1954-07-07,1.6
1954-07-08,1.6
1954-07-09,1.5
1954-07-10,1.5
1954-07-11,1.4
1954-07-12,1.4
1954-07-13,1.4
1954-07-14,1.3
1954-07-15,1.3
1954-07-16,1.3
1954-07-17,1.3
1954-07-18,1.3
1954-07-19,1.3
1954-07-20,1.3
1954-07-21,1.4
1954-07-22,1.4
1954-07-23,1.4
1954-07-24,1.3
1954-07-25,192.0
1954-07-26,1090.0
1954-07-27,753.0
1954-07-28,280.0
1954-07-29,128.0
1954-07-30,78.0
1954-07-31,53.0
1954-08-01,38.0
1954-08-02,24.0
1954-08-03,19.0
1954-08-04,18.0
1954-08-05,17.0
1954-08-06,19.0
1954-08-07,67.0
1954-08-08,105.0
1954-08-09,205.0
1954-08-10,155.0
1954-08-11,133.0
1954-08-12,320.0
1954-08-13,288.0
1954-08-14,216.0
1954-08-15,111.0
1954-08-16,70.0
1954-08-17,59.0
1954-08-18,554.0
1954-08-19,701.0
1954-08-20,401.0
1954-08-21,221.0
1954-08-22,207.0
1954-08-23,417.0
1954-08-24,158.0
1954-08-25,125.0
1954-08-26,246.0
1954-08-27,132.0
1954-08-28,67.0
1954-08-29,44.0
1954-08-30,32.0
1954-08-31,34.0
1954-09-01,27.0
1954-09-02,21.0
1954-09-03,22.0
1954-09-04,18.0
1954-09-05,18.0
1954-09-06,16.0
1954-09-07,13.0
1954-09-08,10.0
1954-09-09,9.0
1954-09-10,2.0
1954-09-11,1.9
1954-09-12,2.7
1954-09-13,43.0
1954-09-14,324.0
1954-09-15,699.0
1954-09-16,330.0
1954-09-17,100.0
1954-09-18,55.0
1954-09-19,39.0
1954-09-20,30.0
1954-09-21,23.0
1954-09-22,18.0
1954-09-23,17.0
1954-09-24,25.0
1954-09-25,136.0
1954-09-26,287.0
1954-09-27,786.0
1954-09-28,1050.0
1954-09-29,912.0
1954-09-30,214.0
1954-10-01,77.0
1954-10-02,56.0
1954-10-03,51.0
1954-10-04,48.0
1954-10-05,89.0
1954-10-06,385.0
1954-10-07,310.0
1954-10-08,389.0
1954-10-09,396.0
1954-10-10,450.0
1954-10-11,418.0
1954-10-12,343.0
1954-10-13,164.0
1954-10-14,91.0
1954-10-15,57.0
1954-10-16,43.0
1954-10-17,39.0
1954-10-18,37.0
1954-10-19,35.0
1954-10-20,36.0
1954-10-21,36.0
1954-10-22,33.0
1954-10-23,28.0
1954-10-24,23.0
1954-10-25,27.0
1954-10-26,34.0
1954-10-27,30.0
1954-10-28,26.0
1954-10-29,31.0
1954-10-30,30.0
1954-10-31,28.0
1954-11-01,33.0
1954-11-02,33.0
1954-11-03,32.0
1954-11-04,35.0
1954-11-05,36.0
1954-11-06,36.0
1954-11-07,39.0
1954-11-08,40.0
1954-11-09,41.0
1954-11-10,38.0
1954-11-11,40.0
1954-11-12,41.0
1954-11-13,48.0
1954-11-14,46.0
1954-11-15,52.0
1954-11-16,57.0
1954-11-17,58.0
1954-11-18,47.0
1954-11-19,44.0
1954-11-20,59.0
1954-11-21,90.0
1954-11-22,112.0
1954-11-23,121.0
1954-11-24,128.0
1954-11-25,131.0
1954-11-26,134.0
1954-11-27,132.0
1954-11-28,136.0
1954-11-29,116.0
1954-11-30,163.0
1954-12-01,172.0
1954-12-02,156.0
1954-12-03,161.0
1954-12-04,163.0
1954-12-05,172.0
1954-12-06,168.0
1954-12-07,185.0
1954-12-08,195.0
1954-12-09,198.0
1954-12-10,224.0
1954-12-11,266.0
1954-12-12,258.0
1954-12-13,272.0
1954-12-14,284.0
1954-12-15,278.0
1954-12-16,300.0
1954-12-17,294.0
1954-12-18,268.0
1954-12-19,288.0
1954-12-20,314.0
1954-12-21,306.0
1954-12-22,203.0
1954-12-23,104.0
1954-12-24,256.0
1954-12-25,336.0
1954-12-26,343.0
1954-12-27,443.0
1954-12-28,495.0
1954-12-29,286.0
1954-12-30,230.0
1954-12-31,176.0
1955-01-01,227.0
1955-01-02,314.0
1955-01-03,420.0
1955-01-04,396.0
1955-01-05,347.0
1955-01-06,479.0
1955-01-07,554.0
1955-01-08,517.0
1955-01-09,497.0
1955-01-10,475.0
1955-01-11,444.0
1955-01-12,451.0
1955-01-13,453.0
1955-01-14,468.0
1955-01-15,475.0
1955-01-16,457.0
1955-01-17,453.0
1955-01-18,446.0
1955-01-19,449.0
1955-01-20,497.0
1955-01-21,517.0
1955-01-22,468.0
1955-01-23,367.0
1955-01-24,398.0
1955-01-25,464.0
1955-01-26,497.0
1955-01-27,376.0
1955-01-28,387.0
1955-01-29,427.0
1955-01-30,493.0
1955-01-31,508.0
1955-02-01,510.0
1955-02-02,460.0
1955-02-03,455.0
1955-02-04,473.0
1955-02-05,468.0
1955-02-06,488.0
1955-02-07,477.0
1955-02-08,497.0
1955-02-09,479.0
1955-02-10,466.0
1955-02-11,427.0
1955-02-12,449.0
1955-02-13,477.0
1955-02-14,488.0
1955-02-15,493.0
1955-02-16,466.0
1955-02-17,444.0
1955-02-18,405.0
1955-02-19,484.0
1955-02-20,453.0
1955-02-21,424.0
1955-02-22,545.0
1955-02-23,603.0
1955-02-24,510.0
1955-02-25,479.0
1955-02-26,433.0
1955-02-27,488.0
1955-02-28,528.0
1955-03-01,499.0
1955-03-02,482.0
1955-03-03,497.0
1955-03-04,484.0
1955-03-05,420.0
1955-03-06,396.0
1955-03-07,328.0
1955-03-08,302.0
1955-03-09,328.0
1955-03-10,306.0
1955-03-11,225.0
1955-03-12,193.0
1955-03-13,171.0
1955-03-14,171.0
1955-03-15,179.0
1955-03-16,168.0
1955-03-17,182.0
1955-03-18,210.0
1955-03-19,174.0
1955-03-20,158.0
1955-03-21,166.0
1955-03-22,158.0
1955-03-23,177.0
1955-03-24,288.0
1955-03-25,236.0
1955-03-26,160.0
1955-03-27,129.0
1955-03-28,118.0
1955-03-29,125.0
1955-03-30,116.0
1955-03-31,122.0
1955-04-01,90.0
1955-04-02,48.0
1955-04-03,51.0
1955-04-04,58.0
1955-04-05,61.0
1955-04-06,70.0
1955-04-07,70.0
1955-04-08,74.0
1955-04-09,66.0
1955-04-10,70.0
1955-04-11,68.0
1955-04-12,85.0
1955-04-13,88.0
1955-04-14,84.0
1955-04-15,83.0
1955-04-16,80.0
1955-04-17,69.0
1955-04-18,65.0
1955-04-19,76.0
1955-04-20,72.0
1955-04-21,63.0
1955-04-22,49.0
1955-04-23,60.0
1955-04-24,63.0
1955-04-25,61.0
1955-04-26,52.0
1955-04-27,64.0
1955-04-28,51.0
1955-04-29,43.0
1955-04-30,38.0
1955-05-01,38.0
1955-05-02,48.0
1955-05-03,58.0
1955-05-04,52.0
1955-05-05,50.0
1955-05-06,45.0
1955-05-07,42.0
1955-05-08,33.0
1955-05-09,39.0
1955-05-10,45.0
1955-05-11,42.0
1955-05-12,43.0
1955-05-13,40.0
1955-05-14,36.0
1955-05-15,37.0
1955-05-16,47.0
1955-05-17,50.0
1955-05-18,68.0
1955-05-19,128.0
1955-05-20,180.0
1955-05-21,212.0
1955-05-22,225.0
1955-05-23,376.0
1955-05-24,592.0
1955-05-25,818.0
1955-05-26,922.0
1955-05-27,1070.0
1955-05-28,1270.0
1955-05-29,463.0
1955-05-30,206.0
1955-05-31,201.0
1955-06-01,363.0
1955-06-02,427.0
1955-06-03,343.0
1955-06-04,248.0
1955-06-05,321.0
1955-06-06,334.0
1955-06-07,306.0
1955-06-08,288.0
1955-06-09,188.0
1955-06-10,125.0
1955-06-11,100.0
1955-06-12,59.0
1955-06-13,36.0
1955-06-14,36.0
1955-06-15,31.0
1955-06-16,36.0
1955-06-17,45.0
1955-06-18,48.0
1955-06-19,52.0
1955-06-20,51.0
1955-06-21,50.0
1955-06-22,46.0
1955-06-23,23.0
1955-06-24,16.0
1955-06-25,24.0
1955-06-26,24.0
1955-06-27,21.0
1955-06-28,18.0
1955-06-29,15.0
1955-06-30,14.0
1955-07-01,15.0
1955-07-02,44.0
1955-07-03,58.0
1955-07-04,31.0
1955-07-05,22.0
1955-07-06,21.0
1955-07-07,19.0
1955-07-08,13.0
1955-07-09,10.0
1955-07-10,7.0
1955-07-11,5.0
1955-07-12,4.0
1955-07-13,3.0
1955-07-14,19.0
1955-07-15,14.0
1955-07-16,10.0
1955-07-17,8.0
1955-07-18,11.0
1955-07-19,21.0
1955-07-20,21.0
1955-07-21,15.0
1955-07-22,12.0
1955-07-23,35.0
1955-07-24,163.0
1955-07-25,284.0
1955-07-26,578.0
1955-07-27,354.0
1955-07-28,862.0
1955-07-29,1470.0
1955-07-30,1460.0
1955-07-31,660.0
1955-08-01,576.0
1955-08-02,278.0
1955-08-03,215.0
1955-08-04,220.0
1955-08-05,206.0
1955-08-06,184.0
1955-08-07,246.0
1955-08-08,482.0
1955-08-09,721.0
1955-08-10,1000.0
1955-08-11,607.0
1955-08-12,820.0
1955-08-13,1200.0
1955-08-14,1180.0
1955-08-15,618.0
1955-08-16,530.0
1955-08-17,407.0
1955-08-18,508.0
1955-08-19,596.0
1955-08-20,541.0
1955-08-21,905.0
1955-08-22,1240.0
1955-08-23,1360.0
1955-08-24,1070.0
1955-08-25,706.0
1955-08-26,490.0
1955-08-27,315.0
1955-08-28,457.0
1955-08-29,710.0
1955-08-30,950.0
1955-08-31,609.0
1955-09-01,453.0
1955-09-02,300.0
1955-09-03,196.0
1955-09-04,148.0
1955-09-05,117.0
1955-09-06,132.0
1955-09-07,186.0
1955-09-08,236.0
1955-09-09,266.0
1955-09-10,155.0
1955-09-11,200.0
1955-09-12,190.0
1955-09-13,164.0
1955-09-14,75.0
1955-09-15,43.0
1955-09-16,42.0
1955-09-17,18.0
1955-09-18,13.0
1955-09-19,14.0
1955-09-20,16.0
1955-09-21,38.0
1955-09-22,49.0
1955-09-23,48.0
1955-09-24,45.0
1955-09-25,45.0
1955-09-26,323.0
1955-09-27,1300.0
1955-09-28,635.0
1955-09-29,206.0
1955-09-30,121.0
1955-10-01,108.0
1955-10-02,279.0
1955-10-03,292.0
1955-10-04,780.0
1955-10-05,544.0
1955-10-06,332.0
1955-10-07,201.0
1955-10-08,162.0
1955-10-09,149.0
1955-10-10,140.0
1955-10-11,119.0
1955-10-12,99.0
1955-10-13,93.0
1955-10-14,87.0
1955-10-15,78.0
1955-10-16,86.0
1955-10-17,87.0
1955-10-18,76.0
1955-10-19,62.0
1955-10-20,54.0
1955-10-21,52.0
1955-10-22,50.0
1955-10-23,51.0
1955-10-24,52.0
1955-10-25,58.0
1955-10-26,59.0
1955-10-27,62.0
1955-10-28,58.0
1955-10-29,55.0
1955-10-30,52.0
1955-10-31,54.0
1955-11-01,60.0
1955-11-02,59.0
1955-11-03,52.0
1955-11-04,50.0
1955-11-05,50.0
1955-11-06,49.0
1955-11-07,44.0
1955-11-08,38.0
1955-11-09,40.0
1955-11-10,39.0
1955-11-11,24.0
1955-11-12,33.0
1955-11-13,41.0
1955-11-14,49.0
1955-11-15,57.0
1955-11-16,78.0
1955-11-17,92.0
1955-11-18,117.0
1955-11-19,164.0
1955-11-20,186.0
1955-11-21,207.0
1955-11-22,206.0